sat.trackr.live / text

‹ back to catalog

STARLINK-30932

NORAD 58523 · 2023-191R

PAYLOAD ACTIVE UNKNOWN

§ Identity

Operator
Country
US
Launch date
2023-12-07
Launch site
AFETR
Launch vehicle
Mass (kg)
RCS (m²)

Purposes: comms

External: N2YO · Heavens-Above · Gunter

§ Orbital elements

Epoch: 2026-05-25T01:21:19.477152Z

Period
94.27 min
Inclination
43.0036°
Eccentricity
0.0001064
Mean motion
15.27575622 rev/d
Perigee alt
482.3 km
Apogee alt
483.8 km
Semi-major
6,861.2 km
B*
-5.0837e-6
RAAN
31.8966°
Arg perigee
269.5421°
Mean anomaly
90.5308°
Rev number
13,710

§ Raw data

STARLINK-309321 58523U 23191R   26145.05647543 -.00000402  00000+0 -50837-5 0  99962 58523  43.0036  31.8966 0001064 269.5421  90.5308 15.27575622137103

JSON: /api/v1/satellites/58523 · /tle

For live sub-satellite position, see the globe view (requires WebGL).

§ Visibility from observer

Set your observer location to see the next 7 days of passes ≥ 10°. The values pass through the URL so the page stays shareable.

No JS? Fill the form by hand. The geolocation button needs JavaScript.